User: anonymous   Login
Location: Unspecified
(0.0000°N, 0.0000°E)
Time: 06:52:00
(UTC+01:00)
Language:

DELTA 2 R/B (1) - Orbit

View from above orbital plane
View from above orbital plane
View from above satellite
View from above satellite

Ground track
Ground track

The orbit data is extracted from the following two-line orbital elements,

1 27665U 03005C   17020.82764903 -.00000004  00000-0  32131-4 0  9992
2 27665  39.5755 140.5835 0008723  22.5505 118.8724 14.28431964729851
Epoch (UTC): 20 January 2017 19:51:48
Eccentricity: 0.0008723
inclination: 39.5755°
perigee height: 791 km
apogee height: 803 km
right ascension of ascending node: 140.5835°
argument of perigee: 22.5505°
revolutions per day: 14.28431964
mean anomaly at epoch: 118.8724°
orbit number at epoch: 72985

The dashed part of the orbit path shows where the satellite is in the earth's shadow,  

DLR